| time (UTC) | temp F | wind direction | speed MPH | gust MPH | rain 1hr in | rain 24hr in | rain mn in | humidity % | barometer mb |
| 20260905222637 | 75 | 98 | 4.0 | 5.0 | 0.00 | 0.01 | 0.01 | 85 | 1017.5 |
| 20260905222132 | 74 | 75 | 3.0 | 5.0 | 0.00 | 0.01 | 0.01 | 87 | 1017.5 |
| 20260905221627 | 73 | 84 | 3.0 | 5.0 | 0.00 | 0.01 | 0.01 | 88 | 1017.5 |
| 20260905221124 | 73 | 72 | 3.0 | 5.0 | 0.00 | 0.01 | 0.01 | 88 | 1017.8 |
| 20260905220619 | 73 | 81 | 4.0 | 4.0 | 0.00 | 0.01 | 0.01 | 88 | 1017.8 |
| 20260905220115 | 73 | 77 | 2.0 | 4.0 | 0.00 | 0.01 | 0.01 | 88 | 1017.8 |
| 20260905215614 | 73 | 95 | 4.0 | 8.0 | 0.00 | 0.01 | 0.01 | 88 | 1017.6 |
| 20260905215110 | 73 | 95 | 7.0 | 7.0 | 0.00 | 0.01 | 0.01 | 89 | 1017.8 |
| 20260905214606 | 73 | 88 | 5.0 | 5.0 | 0.00 | 0.01 | 0.01 | 90 | 1017.6 |
| 20260905214106 | 73 | 79 | 4.0 | 5.0 | 0.00 | 0.01 | 0.01 | 90 | 1017.7 |
| 20260905213601 | 73 | 83 | 3.0 | 3.0 | 0.00 | 0.01 | 0.01 | 91 | 1017.9 |
| 20260905213056 | 72 | 90 | 3.0 | 3.0 | 0.00 | 0.01 | 0.01 | 91 | 1017.8 |
| 20260905212551 | 72 | 78 | 2.0 | 4.0 | 0.00 | 0.01 | 0.01 | 90 | 1017.9 |
| 20260905212051 | 72 | 90 | 4.0 | 5.0 | 0.00 | 0.01 | 0.01 | 90 | 1017.7 |
| 20260905211546 | 72 | 68 | 3.0 | 5.0 | 0.00 | 0.01 | 0.01 | 90 | 1017.9 |
| 20260905211042 | 73 | 103 | 3.0 | 4.0 | 0.00 | 0.01 | 0.01 | 89 | 1017.8 |
| 20260905210537 | 73 | 68 | 3.0 | 4.0 | 0.00 | 0.01 | 0.01 | 89 | 1017.9 |
| 20260905210032 | 73 | 78 | 2.0 | 4.0 | 0.00 | 0.01 | 0.01 | 89 | 1017.9 |
| 20260905205531 | 72 | 70 | 3.0 | 6.0 | 0.00 | 0.01 | 0.01 | 89 | 1018.0 |
| 20260905205030 | 73 | 352 | 0.0 | 3.0 | 0.00 | 0.01 | 0.01 | 89 | 1017.7 |
| 20260905204526 | 72 | 99 | 3.0 | 4.0 | 0.00 | 0.01 | 0.01 | 88 | 1017.8 |
| 20260905204021 | 73 | 68 | 2.0 | 4.0 | 0.00 | 0.01 | 0.01 | 87 | 1017.9 |
| 20260905203521 | 73 | 63 | 1.0 | 4.0 | 0.00 | 0.01 | 0.01 | 88 | 1017.7 |
| 20260905203016 | 73 | 98 | 0.0 | 2.0 | 0.00 | 0.01 | 0.01 | 88 | 1017.6 |
| 20260905202511 | 73 | 60 | 1.0 | 4.0 | 0.00 | 0.01 | 0.01 | 88 | 1017.7 |
| 20260905202007 | 73 | 87 | 3.0 | 4.0 | 0.00 | 0.01 | 0.01 | 88 | 1017.6 |
| 20260905201502 | 73 | 71 | 4.0 | 4.0 | 0.00 | 0.01 | 0.01 | 89 | 1017.8 |
| 20260905201001 | 72 | 106 | 4.0 | 4.0 | 0.00 | 0.01 | 0.01 | 89 | 1017.7 |
| 20260905200457 | 72 | 92 | 7.0 | 7.0 | 0.00 | 0.01 | 0.01 | 89 | 1017.8 |
| 20260905195955 | 72 | 94 | 8.0 | 9.0 | 0.00 | 0.01 | 0.01 | 89 | 1017.9 |
| 20260905195451 | 73 | 84 | 6.0 | 7.0 | 0.00 | 0.01 | 0.01 | 90 | 1017.9 |
| 20260905194947 | 72 | 101 | 8.0 | 8.0 | 0.00 | 0.01 | 0.01 | 90 | 1017.8 |
| 20260905194446 | 72 | 110 | 5.0 | 12.0 | 0.00 | 0.01 | 0.01 | 89 | 1017.7 |
| 20260905193940 | 73 | 90 | 5.0 | 8.0 | 0.00 | 0.01 | 0.01 | 89 | 1017.8 |
| 20260905193435 | 73 | 81 | 4.0 | 10.0 | 0.00 | 0.01 | 0.01 | 88 | 1017.9 |
| 20260905192930 | 73 | 60 | 6.0 | 11.0 | 0.00 | 0.01 | 0.01 | 88 | 1017.7 |
| 20260905192425 | 73 | 46 | 5.0 | 9.0 | 0.00 | 0.01 | 0.01 | 88 | 1017.8 |
| 20260905191920 | 73 | 93 | 11.0 | 11.0 | 0.00 | 0.01 | 0.01 | 88 | 1017.6 |
| 20260905191419 | 74 | 101 | 7.0 | 10.0 | 0.00 | 0.01 | 0.01 | 87 | 1017.8 |
| 20260905190914 | 74 | 95 | 4.0 | 9.0 | 0.00 | 0.01 | 0.01 | 88 | 1017.8 |
| 20260905190412 | 74 | 87 | 7.0 | 9.0 | 0.00 | 0.01 | 0.01 | 87 | 1017.7 |
| 20260905185910 | 73 | 67 | 4.0 | 10.0 | 0.00 | 0.01 | 0.01 | 88 | 1017.9 |
| 20260905185406 | 74 | 96 | 3.0 | 8.0 | 0.00 | 0.01 | 0.01 | 88 | 1017.8 |
| 20260905184904 | 74 | 57 | 2.0 | 4.0 | 0.00 | 0.01 | 0.01 | 88 | 1017.8 |
| 20260905184359 | 73 | 82 | 7.0 | 9.0 | 0.00 | 0.01 | 0.01 | 87 | 1017.8 |
| 20260905183857 | 74 | 61 | 3.0 | 6.0 | 0.00 | 0.01 | 0.01 | 86 | 1017.6 |
| 20260905183352 | 74 | 64 | 5.0 | 8.0 | 0.00 | 0.01 | 0.01 | 85 | 1017.9 |
| 20260905182847 | 75 | 81 | 5.0 | 7.0 | 0.00 | 0.01 | 0.01 | 85 | 1017.9 |
| 20260905182342 | 74 | 86 | 3.0 | 5.0 | 0.00 | 0.01 | 0.01 | 86 | 1017.9 |
| 20260905181837 | 74 | 57 | 3.0 | 9.0 | 0.00 | 0.01 | 0.01 | 88 | 1017.7 |
| 20260905181337 | 73 | 90 | 4.0 | 9.0 | 0.00 | 0.01 | 0.01 | 89 | 1017.8 |
| 20260905180836 | 74 | 24 | 2.0 | 8.0 | 0.00 | 0.01 | 0.01 | 89 | 1017.8 |
| 20260905180331 | 74 | 90 | 3.0 | 8.0 | 0.00 | 0.01 | 0.01 | 90 | 1017.8 |
| 20260905175826 | 73 | 81 | 7.0 | 8.0 | 0.00 | 0.01 | 0.01 | 90 | 1017.8 |
| 20260905175326 | 73 | 21 | 3.0 | 10.0 | 0.00 | 0.01 | 0.01 | 90 | 1017.7 |
| 20260905174821 | 73 | 95 | 10.0 | 10.0 | 0.00 | 0.01 | 0.01 | 90 | 1017.8 |
| 20260905174317 | 73 | 85 | 6.0 | 11.0 | 0.00 | 0.01 | 0.01 | 90 | 1017.9 |
| 20260905173812 | 73 | 90 | 4.0 | 8.0 | 0.00 | 0.01 | 0.01 | 90 | 1017.9 |
| 20260905173308 | 73 | 32 | 3.0 | 7.0 | 0.00 | 0.01 | 0.01 | 91 | 1017.8 |
| 20260905172808 | 72 | 76 | 3.0 | 8.0 | 0.00 | 0.01 | 0.01 | 92 | 1017.8 |
| 20260905172306 | 72 | 52 | 4.0 | 9.0 | 0.00 | 0.01 | 0.01 | 92 | 1017.9 |
| 20260905171803 | 72 | 101 | 5.0 | 9.0 | 0.00 | 0.01 | 0.01 | 91 | 1017.9 |
| 20260905171259 | 72 | 82 | 5.0 | 7.0 | 0.00 | 0.01 | 0.01 | 92 | 1017.6 |
| 20260905170755 | 72 | 56 | 5.0 | 8.0 | 0.00 | 0.01 | 0.01 | 93 | 1017.7 |
| 20260905170251 | 72 | 85 | 3.0 | 7.0 | 0.00 | 0.01 | 0.01 | 93 | 1017.9 |
| 20260905165750 | 72 | 52 | 4.0 | 6.0 | 0.00 | 0.01 | 0.01 | 93 | 1017.9 |
| 20260905165246 | 72 | 37 | 2.0 | 5.0 | 0.00 | 0.01 | 0.01 | 93 | 1018.2 |
| 20260905164746 | 71 | 97 | 3.0 | 6.0 | 0.00 | 0.01 | 0.01 | 94 | 1018.2 |
| 20260905164240 | 71 | 87 | 3.0 | 5.0 | 0.00 | 0.01 | 0.01 | 94 | 1018.2 |
| 20260905163736 | 71 | 355 | 3.0 | 7.0 | 0.00 | 0.01 | 0.01 | 94 | 1017.9 |
| 20260905163232 | 71 | 78 | 4.0 | 7.0 | 0.00 | 0.01 | 0.01 | 94 | 1017.9 |
| 20260905162728 | 71 | 90 | 0.0 | 5.0 | 0.00 | 0.01 | 0.01 | 94 | 1018.1 |
| 20260905162227 | 71 | 27 | 3.0 | 7.0 | 0.00 | 0.01 | 0.01 | 94 | 1018.0 |
| 20260905161723 | 71 | 67 | 3.0 | 11.0 | 0.00 | 0.01 | 0.01 | 94 | 1017.9 |
| 20260905161221 | 71 | 90 | 2.0 | 8.0 | 0.00 | 0.01 | 0.01 | 94 | 1018.0 |
| 20260905160719 | 71 | 75 | 3.0 | 5.0 | 0.00 | 0.01 | 0.01 | 94 | 1018.1 |
| 20260905160214 | 71 | 78 | 11.0 | 13.0 | 0.00 | 0.01 | 0.01 | 93 | 1018.0 |
| 20260905155708 | 71 | 64 | 7.0 | 10.0 | 0.00 | 0.01 | 0.01 | 94 | 1017.8 |
| 20260905155207 | 71 | 30 | 3.0 | 10.0 | 0.00 | 0.01 | 0.01 | 94 | 1017.8 |
| 20260905154701 | 71 | 70 | 4.0 | 9.0 | 0.00 | 0.01 | 0.01 | 94 | 1017.7 |
| 20260905154157 | 71 | 95 | 10.0 | 10.0 | 0.00 | 0.01 | 0.01 | 94 | 1017.6 |
| 20260905153654 | 71 | 94 | 9.0 | 11.0 | 0.00 | 0.01 | 0.01 | 94 | 1017.5 |
| 20260905153148 | 71 | 88 | 5.0 | 9.0 | 0.00 | 0.01 | 0.01 | 94 | 1017.6 |
| 20260905152643 | 71 | 85 | 3.0 | 10.0 | 0.00 | 0.01 | 0.01 | 94 | 1017.5 |
| 20260905152138 | 71 | 76 | 5.0 | 10.0 | 0.00 | 0.01 | 0.01 | 94 | 1017.6 |
| 20260905151633 | 71 | 83 | 6.0 | 10.0 | 0.00 | 0.01 | 0.01 | 94 | 1017.9 |
| 20260905151128 | 71 | 90 | 5.0 | 11.0 | 0.00 | 0.01 | 0.01 | 93 | 1017.6 |
| 20260905150624 | 71 | 74 | 8.0 | 11.0 | 0.00 | 0.01 | 0.01 | 93 | 1017.5 |
| 20260905150122 | 72 | 79 | 4.0 | 7.0 | 0.00 | 0.01 | 0.01 | 94 | 1017.5 |
| 20260905145620 | 71 | 94 | 6.0 | 9.0 | 0.00 | 0.01 | 0.01 | 94 | 1017.1 |
| 20260905145119 | 71 | 62 | 6.0 | 10.0 | 0.00 | 0.01 | 0.01 | 94 | 1017.1 |
| 20260905144614 | 71 | 38 | 5.0 | 7.0 | 0.00 | 0.01 | 0.01 | 94 | 1017.1 |
| 20260905144114 | 71 | 90 | 5.0 | 11.0 | 0.00 | 0.01 | 0.01 | 94 | 1017.1 |
| 20260905143608 | 71 | 349 | 5.0 | 8.0 | 0.00 | 0.01 | 0.01 | 94 | 1017.1 |
| 20260905143103 | 71 | 67 | 3.0 | 8.0 | 0.00 | 0.01 | 0.01 | 95 | 1017.0 |
| 20260905142602 | 70 | 52 | 4.0 | 10.0 | 0.00 | 0.01 | 0.01 | 95 | 1016.8 |
| 20260905142056 | 70 | 69 | 5.0 | 9.0 | 0.00 | 0.01 | 0.01 | 95 | 1017.1 |
| 20260905141556 | 70 | 48 | 4.0 | 10.0 | 0.00 | 0.01 | 0.01 | 96 | 1016.7 |
| 20260905141052 | 70 | 60 | 3.0 | 9.0 | 0.00 | 0.01 | 0.01 | 96 | 1016.8 |
| 20260905140548 | 69 | 41 | 4.0 | 11.0 | 0.00 | 0.01 | 0.01 | 96 | 1016.8 |
| 20260905140046 | 70 | 86 | 3.0 | 9.0 | 0.00 | 0.01 | 0.01 | 96 | 1016.9 |
| 20260905135542 | 69 | 71 | 3.0 | 9.0 | 0.00 | 0.01 | 0.01 | 97 | 1017.0 |
| 20260905135042 | 69 | 90 | 4.0 | 11.0 | 0.00 | 0.01 | 0.01 | 97 | 1017.3 |
| 20260905134537 | 69 | 72 | 2.0 | 7.0 | 0.00 | 0.01 | 0.01 | 97 | 1017.0 |
| 20260905134035 | 69 | 49 | 3.0 | 8.0 | 0.00 | 0.01 | 0.01 | 97 | 1017.1 |
| 20260905133531 | 69 | 82 | 6.0 | 7.0 | 0.00 | 0.01 | 0.01 | 97 | 1017.2 |
| 20260905133031 | 69 | 90 | 4.0 | 8.0 | 0.00 | 0.01 | 0.01 | 97 | 1017.2 |
| 20260905132531 | 69 | 85 | 7.0 | 7.0 | 0.00 | 0.01 | 0.01 | 97 | 1017.1 |
| 20260905132026 | 69 | 12 | 3.0 | 7.0 | 0.00 | 0.01 | 0.01 | 97 | 1017.2 |
| 20260905131521 | 69 | 81 | 2.0 | 6.0 | 0.00 | 0.01 | 0.01 | 97 | 1017.2 |
| 20260905131016 | 69 | 88 | 6.0 | 7.0 | 0.00 | 0.01 | 0.01 | 97 | 1017.0 |
| 20260905130515 | 69 | 80 | 4.0 | 8.0 | 0.00 | 0.01 | 0.01 | 97 | 1016.8 |
| 20260905130011 | 69 | 81 | 5.0 | 9.0 | 0.00 | 0.01 | 0.01 | 97 | 1016.6 |
| 20260905125505 | 69 | 100 | 8.0 | 8.0 | 0.00 | 0.01 | 0.01 | 97 | 1016.7 |
| 20260905125000 | 69 | 79 | 5.0 | 8.0 | 0.00 | 0.01 | 0.01 | 97 | 1016.6 |
| 20260905124457 | 69 | 95 | 2.0 | 7.0 | 0.00 | 0.01 | 0.01 | 97 | 1016.6 |
| 20260905123952 | 69 | 69 | 1.0 | 7.0 | 0.00 | 0.01 | 0.01 | 97 | 1016.6 |
| 20260905123448 | 69 | 58 | 4.0 | 8.0 | 0.00 | 0.01 | 0.01 | 97 | 1016.6 |
| 20260905122948 | 69 | 92 | 6.0 | 6.0 | 0.00 | 0.01 | 0.01 | 97 | 1016.7 |
| 20260905122443 | 69 | 23 | 4.0 | 6.0 | 0.00 | 0.01 | 0.01 | 97 | 1016.3 |
| 20260905121938 | 68 | 79 | 4.0 | 10.0 | 0.00 | 0.01 | 0.01 | 97 | 1016.3 |
| 20260905121434 | 69 | 100 | 3.0 | 5.0 | 0.00 | 0.01 | 0.01 | 97 | 1016.3 |
| 20260905120933 | 69 | 22 | 2.0 | 7.0 | 0.00 | 0.01 | 0.01 | 97 | 1016.2 |
| 20260905120427 | 69 | 70 | 2.0 | 6.0 | 0.00 | 0.01 | 0.01 | 97 | 1016.0 |
| 20260905115922 | 69 | 53 | 3.0 | 8.0 | 0.00 | 0.01 | 0.01 | 97 | 1015.7 |
| 20260905115422 | 69 | 71 | 2.0 | 5.0 | 0.00 | 0.01 | 0.01 | 97 | 1015.8 |
| 20260905114917 | 69 | 99 | 3.0 | 5.0 | 0.00 | 0.01 | 0.01 | 97 | 1015.9 |
| 20260905114416 | 69 | 29 | 1.0 | 4.0 | 0.00 | 0.01 | 0.01 | 97 | 1015.8 |
| 20260905113916 | 69 | 73 | 2.0 | 5.0 | 0.00 | 0.01 | 0.01 | 97 | 1015.9 |
| 20260905113411 | 68 | 40 | 2.0 | 4.0 | 0.00 | 0.01 | 0.01 | 97 | 1015.8 |
| 20260905112906 | 69 | 33 | 2.0 | 4.0 | 0.00 | 0.01 | 0.01 | 97 | 1015.9 |
| 20260905112401 | 69 | 23 | 0.0 | 4.0 | 0.02 | 0.01 | 0.01 | 97 | 1015.8 |
| 20260905111856 | 68 | 0 | 0.0 | 5.0 | 0.02 | 0.01 | 0.01 | 97 | 1015.7 |
| 20260905111350 | 68 | 29 | 2.0 | 4.0 | 0.00 | 0.00 | 0.00 | 97 | 1015.9 |
| 20260905110850 | 68 | 15 | 2.0 | 4.0 | 0.02 | 0.00 | 0.00 | 97 | 1015.7 |
| 20260905110344 | 68 | 74 | 3.0 | 6.0 | 0.02 | 0.00 | 0.00 | 96 | 1015.7 |
| 20260905105839 | 68 | 3 | 0.0 | 6.0 | 0.00 | 0.00 | 0.00 | 96 | 1015.8 |
| 20260905105339 | 68 | 41 | 2.0 | 5.0 | 0.00 | 0.00 | 0.00 | 96 | 1015.6 |
| 20260905104833 | 69 | 83 | 5.0 | 6.0 | 0.00 | 0.00 | 0.00 | 96 | 1015.7 |
| 20260905104330 | 68 | 82 | 3.0 | 5.0 | 0.00 | 0.00 | 0.00 | 96 | 1015.7 |
| 20260905103829 | 68 | 21 | 3.0 | 4.0 | 0.00 | 0.00 | 0.00 | 96 | 1015.8 |
| 20260905103324 | 69 | 32 | 0.0 | 5.0 | 0.00 | 0.00 | 0.00 | 96 | 1015.7 |
| 20260905102820 | 69 | 22 | 3.0 | 7.0 | 0.00 | 0.00 | 0.00 | 96 | 1015.6 |
| 20260905102317 | 69 | 100 | 3.0 | 8.0 | 0.00 | 0.00 | 0.00 | 96 | 1015.7 |
| 20260905101817 | 69 | 131 | 6.0 | 9.0 | 0.00 | 0.00 | 0.00 | 96 | 1015.9 |
| 20260905101315 | 69 | 32 | 2.0 | 7.0 | 0.00 | 0.00 | 0.00 | 96 | 1015.6 |
| 20260905100809 | 69 | 77 | 8.0 | 9.0 | 0.00 | 0.00 | 0.00 | 96 | 1015.7 |
| 20260905100306 | 69 | 80 | 2.0 | 9.0 | 0.00 | 0.00 | 0.00 | 96 | 1015.7 |
| 20260905095804 | 69 | 58 | 5.0 | 6.0 | 0.00 | 0.00 | 0.00 | 96 | 1015.4 |
| 20260905095259 | 69 | 98 | 5.0 | 9.0 | 0.00 | 0.00 | 0.00 | 96 | 1015.5 |
| 20260905094754 | 69 | 32 | 0.0 | 8.0 | 0.00 | 0.00 | 0.00 | 96 | 1015.4 |
| 20260905094249 | 69 | 84 | 3.0 | 7.0 | 0.00 | 0.00 | 0.00 | 96 | 1015.4 |
| 20260905093748 | 70 | 0 | 1.0 | 10.0 | 0.00 | 0.00 | 0.00 | 96 | 1015.5 |
| 20260905093244 | 70 | 106 | 4.0 | 8.0 | 0.00 | 0.00 | 0.00 | 96 | 1015.3 |
| 20260905092740 | 70 | 43 | 6.0 | 10.0 | 0.00 | 0.00 | 0.00 | 96 | 1015.1 |
| 20260905092235 | 70 | 51 | 6.0 | 6.0 | 0.00 | 0.00 | 0.00 | 96 | 1015.1 |
| 20260905091735 | 70 | 79 | 4.0 | 9.0 | 0.00 | 0.00 | 0.00 | 96 | 1015.3 |
| 20260905091230 | 69 | 38 | 5.0 | 9.0 | 0.00 | 0.00 | 0.00 | 96 | 1015.4 |
| 20260905090728 | 70 | 15 | 3.0 | 6.0 | 0.00 | 0.00 | 0.00 | 96 | 1015.4 |
| 20260905090225 | 70 | 59 | 2.0 | 6.0 | 0.00 | 0.00 | 0.00 | 96 | 1015.3 |
| 20260905085723 | 70 | 45 | 2.0 | 5.0 | 0.00 | 0.00 | 0.00 | 96 | 1015.5 |
| 20260905085219 | 69 | 85 | 6.0 | 6.0 | 0.00 | 0.00 | 0.00 | 96 | 1015.3 |
| 20260905084719 | 70 | 85 | 2.0 | 5.0 | 0.00 | 0.00 | 0.00 | 96 | 1015.4 |
| 20260905084218 | 70 | 48 | 2.0 | 5.0 | 0.00 | 0.00 | 0.00 | 96 | 1015.5 |
| 20260905083714 | 70 | 56 | 0.0 | 4.0 | 0.00 | 0.00 | 0.00 | 96 | 1015.3 |
| 20260905083210 | 70 | 45 | 3.0 | 5.0 | 0.00 | 0.00 | 0.00 | 96 | 1015.2 |
| 20260905082705 | 70 | 12 | 0.0 | 5.0 | 0.00 | 0.00 | 0.00 | 96 | 1015.2 |
| 20260905082200 | 70 | 70 | 2.0 | 4.0 | 0.00 | 0.00 | 0.00 | 96 | 1015.1 |
| 20260905081655 | 70 | 105 | 0.0 | 4.0 | 0.00 | 0.00 | 0.00 | 96 | 1015.2 |
| 20260905081150 | 70 | 33 | 2.0 | 3.0 | 0.00 | 0.00 | 0.00 | 96 | 1015.2 |
| 20260905080649 | 70 | 99 | 2.0 | 2.0 | 0.00 | 0.00 | 0.00 | 96 | 1015.2 |
| 20260905080149 | 70 | 90 | 2.0 | 3.0 | 0.00 | 0.00 | 0.00 | 96 | 1015.1 |
| 20260905075649 | 71 | 83 | 1.0 | 3.0 | 0.00 | 0.00 | 0.00 | 96 | 1015.0 |
| 20260905075148 | 70 | 90 | 0.0 | 3.0 | 0.00 | 0.00 | 0.00 | 96 | 1015.0 |
| 20260905074647 | 70 | 67 | 2.0 | 3.0 | 0.00 | 0.00 | 0.00 | 96 | 1015.2 |
| 20260905074143 | 70 | 83 | 1.0 | 2.0 | 0.00 | 0.00 | 0.00 | 96 | 1015.1 |
| 20260905073638 | 70 | 79 | 0.0 | 3.0 | 0.00 | 0.00 | 0.00 | 96 | 1015.1 |
| 20260905073134 | 70 | 75 | 2.0 | 3.0 | 0.00 | 0.00 | 0.00 | 96 | 1014.9 |
| 20260905072633 | 70 | 96 | 3.0 | 5.0 | 0.00 | 0.00 | 0.00 | 96 | 1015.0 |
| 20260905072128 | 70 | 86 | 3.0 | 5.0 | 0.00 | 0.00 | 0.00 | 96 | 1015.1 |
| 20260905071625 | 71 | 90 | 4.0 | 5.0 | 0.00 | 0.00 | 0.00 | 96 | 1015.1 |
| 20260905071120 | 71 | 96 | 3.0 | 3.0 | 0.00 | 0.00 | 0.00 | 96 | 1015.1 |
| 20260905070616 | 71 | 85 | 2.0 | 4.0 | 0.00 | 0.00 | 0.00 | 96 | 1015.3 |
| 20260905070112 | 71 | 106 | 0.0 | 1.0 | 0.00 | 0.00 | 0.00 | 96 | 1015.4 |
| 20260905065609 | 71 | 99 | 0.0 | 2.0 | 0.00 | 0.00 | 0.00 | 96 | 1015.3 |
| 20260905065104 | 71 | 60 | 1.0 | 3.0 | 0.00 | 0.00 | 0.00 | 96 | 1015.0 |
| 20260905064559 | 71 | 85 | 2.0 | 3.0 | 0.00 | 0.00 | 0.00 | 96 | 1015.0 |
| 20260905064055 | 71 | 97 | 3.0 | 3.0 | 0.00 | 0.00 | 0.00 | 96 | 1015.2 |
| 20260905063553 | 71 | 74 | 0.0 | 1.0 | 0.00 | 0.00 | 0.00 | 96 | 1015.1 |
| 20260905063050 | 71 | 90 | 1.0 | 2.0 | 0.00 | 0.00 | 0.00 | 95 | 1015.1 |
| 20260905062545 | 71 | 77 | 0.0 | 3.0 | 0.00 | 0.00 | 0.00 | 96 | 1015.3 |
| 20260905062044 | 71 | 90 | 0.0 | 1.0 | 0.00 | 0.00 | 0.00 | 96 | 1015.4 |
| 20260905061540 | 71 | 90 | 2.0 | 2.0 | 0.00 | 0.00 | 0.00 | 95 | 1015.2 |
| 20260905061039 | 71 | 75 | 2.0 | 3.0 | 0.00 | 0.00 | 0.00 | 95 | 1015.3 |
| 20260905060535 | 71 | 90 | 0.0 | 2.0 | 0.00 | 0.00 | 0.00 | 95 | 1015.4 |
| 20260905060031 | 71 | 93 | 3.0 | 3.0 | 0.00 | 0.00 | 0.00 | 95 | 1015.3 |
| 20260905055529 | 71 | 90 | 5.0 | 5.0 | 0.00 | 0.00 | 0.00 | 95 | 1015.1 |
| 20260905055024 | 71 | 86 | 5.0 | 7.0 | 0.00 | 0.00 | 0.00 | 95 | 1015.4 |
| 20260905054520 | 71 | 68 | 3.0 | 5.0 | 0.00 | 0.00 | 0.00 | 95 | 1015.2 |
| 20260905054015 | 71 | 90 | 1.0 | 5.0 | 0.00 | 0.00 | 0.00 | 95 | 1015.2 |
| 20260905053509 | 71 | 115 | 2.0 | 6.0 | 0.00 | 0.00 | 0.00 | 95 | 1014.9 |
| 20260905053006 | 71 | 90 | 5.0 | 8.0 | 0.00 | 0.00 | 0.00 | 95 | 1015.2 |
| 20260905052504 | 71 | 37 | 5.0 | 8.0 | 0.00 | 0.00 | 0.00 | 95 | 1015.2 |
| 20260905052004 | 71 | 72 | 3.0 | 5.0 | 0.00 | 0.00 | 0.00 | 95 | 1015.2 |
| 20260905051500 | 71 | 90 | 4.0 | 7.0 | 0.00 | 0.00 | 0.00 | 95 | 1015.1 |
| 20260905050957 | 71 | 85 | 4.0 | 6.0 | 0.00 | 0.00 | 0.00 | 95 | 1015.0 |
| 20260905050452 | 71 | 88 | 4.0 | 7.0 | 0.00 | 0.00 | 0.00 | 95 | 1015.2 |
| 20260905045948 | 72 | 85 | 4.0 | 6.0 | 0.00 | 3.33 | 3.33 | 95 | 1015.1 |
| 20260905045444 | 71 | 95 | 4.0 | 5.0 | 0.00 | 3.33 | 3.33 | 95 | 1015.0 |
| 20260905044939 | 72 | 88 | 4.0 | 7.0 | 0.00 | 3.33 | 3.33 | 95 | 1015.1 |
| 20260905044438 | 72 | 90 | 2.0 | 4.0 | 0.00 | 3.33 | 3.33 | 95 | 1015.0 |
| 20260905043933 | 72 | 77 | 4.0 | 5.0 | 0.00 | 3.33 | 3.33 | 95 | 1015.0 |
| 20260905043432 | 72 | 90 | 5.0 | 6.0 | 0.00 | 3.33 | 3.33 | 95 | 1015.3 |
| 20260905042927 | 72 | 75 | 3.0 | 4.0 | 0.00 | 3.33 | 3.33 | 95 | 1015.1 |
| 20260905042421 | 72 | 60 | 0.0 | 3.0 | 0.00 | 3.33 | 3.33 | 95 | 1015.2 |
| 20260905041916 | 72 | 98 | 2.0 | 5.0 | 0.00 | 3.33 | 3.33 | 95 | 1015.2 |
| 20260905041413 | 72 | 90 | 6.0 | 7.0 | 0.00 | 3.33 | 3.33 | 95 | 1015.1 |
| 20260905040913 | 72 | 95 | 4.0 | 7.0 | 0.00 | 3.33 | 3.33 | 95 | 1015.0 |
| 20260905040407 | 72 | 87 | 4.0 | 5.0 | 0.00 | 3.33 | 3.33 | 95 | 1015.1 |
| 20260905035906 | 72 | 85 | 3.0 | 5.0 | 0.00 | 3.33 | 3.33 | 95 | 1015.0 |
| 20260905035401 | 72 | 70 | 2.0 | 5.0 | 0.00 | 3.33 | 3.33 | 95 | 1015.2 |
| 20260905034858 | 72 | 104 | 3.0 | 5.0 | 0.00 | 3.33 | 3.33 | 95 | 1015.2 |
| 20260905034353 | 72 | 26 | 2.0 | 3.0 | 0.00 | 3.33 | 3.33 | 95 | 1015.2 |
| 20260905033851 | 72 | 63 | 1.0 | 5.0 | 0.00 | 3.33 | 3.33 | 95 | 1015.0 |
| 20260905033348 | 72 | 0 | 0.0 | 5.0 | 0.00 | 3.33 | 3.33 | 95 | 1014.9 |
| 20260905032846 | 72 | 90 | 7.0 | 7.0 | 0.00 | 3.33 | 3.33 | 95 | 1014.9 |
| 20260905032342 | 72 | 87 | 10.0 | 10.0 | 0.00 | 3.33 | 3.33 | 95 | 1014.5 |
| 20260905031837 | 72 | 78 | 7.0 | 9.0 | 0.00 | 3.33 | 3.33 | 95 | 1014.6 |
| 20260905031333 | 72 | 98 | 5.0 | 7.0 | 0.00 | 3.33 | 3.33 | 95 | 1014.6 |
| 20260905030828 | 72 | 70 | 2.0 | 7.0 | 0.00 | 3.33 | 3.33 | 95 | 1014.7 |
| 20260905030324 | 72 | 93 | 4.0 | 5.0 | 0.00 | 3.33 | 3.33 | 94 | 1014.9 |
| 20260905025823 | 72 | 75 | 0.0 | 3.0 | 0.00 | 3.33 | 3.33 | 94 | 1015.1 |
| 20260905025318 | 72 | 78 | 0.0 | 4.0 | 0.00 | 3.33 | 3.33 | 94 | 1015.0 |
| 20260905024815 | 72 | 66 | 2.0 | 5.0 | 0.00 | 3.33 | 3.33 | 94 | 1015.1 |
| 20260905024310 | 72 | 81 | 2.0 | 3.0 | 0.00 | 3.33 | 3.33 | 94 | 1015.0 |
| 20260905023805 | 72 | 90 | 2.0 | 4.0 | 0.00 | 3.33 | 3.33 | 94 | 1014.8 |
| 20260905023300 | 72 | 87 | 3.0 | 3.0 | 0.00 | 3.33 | 3.33 | 94 | 1014.9 |
| 20260905022759 | 73 | 92 | 5.0 | 5.0 | 0.00 | 3.33 | 3.33 | 94 | 1014.7 |
| 20260905022254 | 73 | 90 | 0.0 | 2.0 | 0.00 | 3.33 | 3.33 | 94 | 1015.0 |
| 20260905021749 | 73 | 106 | 0.0 | 3.0 | 0.00 | 3.33 | 3.33 | 94 | 1014.7 |
| 20260905021244 | 73 | 93 | 3.0 | 5.0 | 0.00 | 3.33 | 3.33 | 94 | 1014.7 |
| 20260905020744 | 72 | 90 | 2.0 | 2.0 | 0.00 | 3.33 | 3.33 | 94 | 1014.9 |
| 20260905020239 | 72 | 151 | 2.0 | 4.0 | 0.00 | 3.33 | 3.33 | 94 | 1014.7 |
| 20260905015738 | 72 | 113 | 3.0 | 5.0 | 0.00 | 3.33 | 3.33 | 93 | 1014.5 |
| 20260905015232 | 73 | 98 | 3.0 | 4.0 | 0.00 | 3.33 | 3.33 | 94 | 1014.6 |
| 20260905014731 | 72 | 117 | 3.0 | 5.0 | 0.00 | 3.33 | 3.33 | 93 | 1014.6 |
| 20260905014227 | 73 | 106 | 4.0 | 5.0 | 0.00 | 3.33 | 3.33 | 93 | 1014.4 |
| 20260905013723 | 73 | 71 | 3.0 | 4.0 | 0.00 | 3.33 | 3.33 | 93 | 1014.3 |
| 20260905013219 | 73 | 128 | 2.0 | 4.0 | 0.00 | 3.33 | 3.33 | 93 | 1014.6 |
| 20260905012714 | 73 | 100 | 2.0 | 3.0 | 0.00 | 3.33 | 3.33 | 93 | 1014.6 |
| 20260905012209 | 73 | 134 | 6.0 | 8.0 | 0.00 | 3.33 | 3.33 | 93 | 1014.5 |
| 20260905011700 | 73 | 135 | 6.0 | 9.0 | 0.00 | 3.33 | 3.33 | 93 | 1014.3 |
| 20260905011156 | 73 | 127 | 3.0 | 10.0 | 0.00 | 3.33 | 3.33 | 93 | 1013.9 |
| 20260905010655 | 73 | 135 | 5.0 | 6.0 | 0.00 | 3.33 | 3.33 | 93 | 1014.1 |
| 20260905010151 | 73 | 132 | 8.0 | 13.0 | 0.00 | 3.33 | 3.33 | 92 | 1013.8 |
| 20260905005648 | 73 | 134 | 5.0 | 6.0 | 0.00 | 3.33 | 3.33 | 92 | 1014.1 |
| 20260905005143 | 73 | 115 | 4.0 | 6.0 | 0.00 | 3.33 | 3.33 | 92 | 1014.0 |
| 20260905004637 | 73 | 132 | 0.0 | 3.0 | 0.00 | 3.33 | 3.33 | 92 | 1014.1 |
| 20260905004132 | 73 | 124 | 3.0 | 5.0 | 0.00 | 3.33 | 3.33 | 92 | 1013.9 |
| 20260905003628 | 73 | 101 | 3.0 | 8.0 | 0.00 | 3.33 | 3.33 | 91 | 1014.0 |
| 20260905003124 | 74 | 129 | 5.0 | 8.0 | 0.00 | 3.33 | 3.33 | 92 | 1014.4 |
| 20260905002619 | 73 | 143 | 6.0 | 8.0 | 0.00 | 3.33 | 3.33 | 92 | 1014.4 |
| 20260905002114 | 73 | 116 | 3.0 | 4.0 | 0.00 | 3.33 | 3.33 | 92 | 1014.5 |
| 20260905001609 | 74 | 117 | 1.0 | 5.0 | 0.00 | 3.33 | 3.33 | 91 | 1014.4 |
| 20260905001109 | 74 | 113 | 0.0 | 5.0 | 0.00 | 3.33 | 3.33 | 91 | 1014.1 |
| 20260905000604 | 74 | 119 | 3.0 | 6.0 | 0.00 | 3.33 | 3.33 | 91 | 1014.1 |
| 20260905000100 | 74 | 105 | 2.0 | 5.0 | 0.00 | 3.33 | 3.33 | 90 | 1014.0 |
| 20260904235600 | 74 | 115 | 4.0 | 5.0 | 0.00 | 3.33 | 3.33 | 90 | 1013.8 |
| 20260904235059 | 74 | 117 | 3.0 | 7.0 | 0.00 | 3.33 | 3.33 | 90 | 1013.8 |
| 20260904234554 | 74 | 113 | 5.0 | 9.0 | 0.00 | 3.33 | 3.33 | 90 | 1013.7 |
| 20260904234050 | 75 | 104 | 3.0 | 7.0 | 0.00 | 3.33 | 3.33 | 90 | 1013.9 |
| 20260904233545 | 75 | 120 | 3.0 | 5.0 | 0.00 | 3.33 | 3.33 | 90 | 1014.0 |
| 20260904233041 | 75 | 110 | 4.0 | 7.0 | 0.00 | 3.33 | 3.33 | 90 | 1013.7 |
| 20260904232538 | 76 | 120 | 5.0 | 9.0 | 0.00 | 3.33 | 3.33 | 90 | 1013.7 |
| 20260904232034 | 76 | 125 | 4.0 | 6.0 | 0.00 | 3.33 | 3.33 | 90 | 1013.4 |
| 20260904231529 | 77 | 94 | 5.0 | 9.0 | 0.00 | 3.33 | 3.33 | 90 | 1013.8 |
| 20260904231024 | 77 | 94 | 7.0 | 12.0 | 0.00 | 3.33 | 3.33 | 89 | 1013.6 |
| 20260904230523 | 78 | 86 | 7.0 | 20.0 | 0.00 | 3.33 | 3.33 | 86 | 1013.3 |
| 20260904230019 | 81 | 201 | 0.0 | 2.0 | 0.00 | 3.33 | 3.33 | 84 | 1013.5 |
| 20260904225517 | 81 | 205 | 3.0 | 4.0 | 0.00 | 3.33 | 3.33 | 84 | 1013.1 |
| 20260904225016 | 81 | 194 | 5.0 | 5.0 | 0.00 | 3.33 | 3.33 | 83 | 1013.0 |
| 20260904224511 | 81 | 194 | 3.0 | 4.0 | 0.00 | 3.33 | 3.33 | 83 | 1013.3 |
| 20260904224006 | 81 | 196 | 3.0 | 3.0 | 0.00 | 3.33 | 3.33 | 83 | 1013.0 |
| 20260904223505 | 82 | 220 | 2.0 | 4.0 | 0.00 | 3.33 | 3.33 | 83 | 1012.8 |
| 20260904223001 | 82 | 180 | 2.0 | 3.0 | 0.00 | 3.33 | 3.33 | 81 | 1012.8 |